Home > Weather > Paramus > Past weeks

Flag for USA Past Weather in Paramus, New Jersey, USA — Yesterday and Last 2 Weeks

Now
75 °F

Clear.


Feels Like: 78 °F
Forecast: 66 / 84 °F
Wind: 7 mph from South

Location: Teterboro Airport

Current Time: Jun 26, 2016 at 10:22:03 PM

Latest Report: Jun 26, 2016 at 9:51 PM


Visibility: 10 mi

Pressure: 30.11 "Hg

Humidity: 42%

Dew Point: 50 °F

Location of ParamusLocation

Past Weather in Paramus — Graph

°F

Paramus Temperature Yesterday

Maximum temperature yesterday: 84 °F (at 1:51 PM)
Minimum temperature yesterday: 63 °F (at 5:51 AM)
Average temperature yesterday: 74 °F

High & Low Weather Summary for the Past Weeks

 TemperatureHumidityPressure
High89 °F (Jun 21, 4:51 PM)90% (Jun 16, 6:51 AM)30.30 "Hg (Jun 16, 6:51 AM)
Low56 °F (Jun 13, 5:51 AM)18% (Jun 15, 3:51 PM)29.60 "Hg (Jun 12, 1:51 PM)
Average74 °F50%29.95 "Hg
* Reported Jun 11 8:51 PM — Jun 26 8:51 PM, Paramus, Weather by CustomWeather, © 2016

Note: Actual official high and low records may vary slightly from our data, if they occured in-between our weather recording intervals... More about our weather records

Advertising

Paramus Weather History for the Previous 24 Hours

Scroll right to see more
 ConditionsComfort  
Time TempWeatherWind HumidityBarometerVisibility
8:51 PM
Sun, Jun 26
77 °FSunny.12 mph37%30.10 "Hg10 mi
7:51 PM78 °FSunny.10 mph36%30.12 "Hg10 mi
6:51 PM80 °FSunny.9 mph39%30.12 "Hg10 mi
5:51 PM82 °FSunny.9 mph41%30.12 "Hg10 mi
4:51 PM83 °FSunny.12 mph41%30.14 "Hg10 mi
3:51 PM85 °FSunny.13 mph39%30.14 "Hg10 mi
2:51 PM87 °FSunny.13 mph37%30.16 "Hg10 mi
1:51 PM86 °FSunny.12 mph37%30.17 "Hg10 mi
12:51 PM85 °FSunny.6 mph37%30.19 "Hg10 mi
11:51 AM83 °FSunny.6 mph38%30.19 "Hg10 mi
10:51 AM82 °FSunny.3 mph38%30.20 "Hg10 mi
9:51 AM80 °FSunny.6 mph38%30.20 "Hg10 mi
8:51 AM75 °FFog.3 mph50%30.21 "Hg10 mi
7:51 AM71 °FFog.5 mph61%30.21 "Hg10 mi
6:51 AM67 °FFog.No wind81%30.21 "Hg10 mi
5:51 AM65 °FFog.No wind85%30.22 "Hg10 mi
4:51 AM65 °FClear.No wind85%30.22 "Hg10 mi
3:51 AM66 °FPassing clouds.No wind81%30.23 "Hg10 mi
2:51 AM68 °FClear.3 mph76%30.22 "Hg10 mi
1:51 AM67 °FClear.No wind71%30.20 "Hg10 mi
12:51 AM69 °FPassing clouds.8 mph66%30.20 "Hg10 mi
11:51 PM
Sat, Jun 25
69 °FClear.3 mph57%30.19 "Hg10 mi
10:51 PM70 °FClear.5 mph57%30.19 "Hg10 mi
Weather by CustomWeather, © 2016

See weather overviewHow to use our weather pages